weather.gov     
National Weather Service

Regional Weather Roundup
NWS Homepage
This page is being discontinued on March 12, 2014.
The same data is available at this site. Please update your bookmarks.
Thank you, and we apologize for the inconvenience.
Please send an email to SR-SRH.Webmaster@noaa.gov with any concerns.


Current Version
Previous Version:    01  02  03  04  05  06  07  08  09  10  11  12  13  14  15  16  17  18  19  20  21  22  23  24  25  26  27  28  29  30  
   31  32  33  34  35  36  37  38  39  40  41  42  43  44  45  46  47  48  49  50  51  52  53  54  
[Printable]
112
ASUS43 KLMK 191210
RWRKY
KENTUCKY REGIONAL WEATHER ROUNDUP
NATIONAL WEATHER SERVICE LOUISVILLE KY
800 AM EDT SAT APR 19 2014

NOTE "FAIR" INDICATES FEW OR NO CLOUDS BELOW 12,000 FEET
WITH NO SIGNIFICANT WEATHER AND/OR OBSTRUCTIONS TO VISIBILITY.

KYZ001>023-026-027-061>063-070>075-191300-
WESTERN AND SOUTH CENTRAL KENTUCKY

CITY           SKY/WX    TMP DP  RH WIND       PRES   REMARKS
PADUCAH        CLEAR     50  42  74 CALM      30.23R
HENDERSON      CLEAR     52  41  66 NE7       30.26R
OWENSBORO      CLEAR     54  43  66 NE9       30.26R
HOPKINSVILLE   CLEAR     48  45  87 N7        30.22R
BOWLING GREEN  CLEAR     45  44  97 CALM      30.23R
GLASGOW        SUNNY     52  39  62 N3        30.22R
$$

KYZ024-025-028>034-038-045-046-053-191300-
NORTH CENTRAL KENTUCKY

CITY           SKY/WX    TMP DP  RH WIND       PRES   REMARKS
LOUISVILLE/SDF MOSUNNY   51  41  68 N7        30.26R
LOUISVILLE/LOU SUNNY     52  40  63 N5        30.27R
FORT KNOX      SUNNY     52  40  62 N8        30.24R
$$

KYZ035>037-039>044-047>052-055>060-089>105-191300-
NORTHEAST KENTUCKY

CITY           SKY/WX    TMP DP  RH WIND       PRES   REMARKS
LEXINGTON      SUNNY     50  40  68 NE8       30.24R
COVINGTON      MOSUNNY   49  39  68 N8        30.28R
FRANKFORT      SUNNY     50  39  66 N6        30.25R
$$

KYZ054-064>069-076>088-106>120-191300-
SOUTHEAST KENTUCKY

CITY           SKY/WX    TMP DP  RH WIND       PRES   REMARKS
JACKSON        MOSUNNY   55  34  45 VRB3      30.22R
LONDON         PTSUNNY   53  36  52 NE7       30.21R
SOMERSET       SUNNY     48  37  66 CALM      30.23R
MIDDLESBORO    CLOUDY    45  42  90 CALM      30.19R
MONTICELLO     MOSUNNY   41  40  96 CALM      30.23R
$$





U.S. Dept. of Commerce
NOAA National Weather Service
1325 East West Highway
Silver Spring, MD 20910
E-mail: w-nws.webmaster@noaa.gov
Page last modified: May 16, 2007
NATIONAL WEATHER SERVICE: for Safety, for Work, for Fun - FOR LIFE